EHI
0 0 0 1 0 1 1 1 0 0 0 0 0 0 0 0 0 0 0 0 0 0 0 0 0 0 0 0 0 0 0 0 0 0 0 0 0 0
0 0 0 1 0 0 0 0 0 0 0 0 0 0 0 0 0 0 0 0 0 0 0 0 0 0 0 0 0 0 0 0 0 0 0 0 0 0
0 0 0 0 0 0 0 0 0 0 0 0 0 0 0 0 1 1 0 0 0 0 0 0 0 0 0 0 0 0 0 0 0 0 0 0 0 0
0 0 0 0 0 0 0 0 0 0 0 0 0 0 0 0 1 1 0 0 0 0 0 0 0 0 0 0 0 0 0 0 0 0 0 0 0 0
0 0 0 0 0 0 0 1 1 1 1 1 0 0 1 1 1 1 0 0 0 0 0 0 0 0 0 0 0 0 0 0 0 0 0 0 0 0
0 0 0 0 0 0 1 2 2 2 2 1 0 0 1 2 1 0 0 0 0 0 0 0 0 0 0 0 0 0 0 0 0 0 0 0 0 0
1 1 1 0 0 0 1 2 2 2 1 1 0 0 1 1 1 0 0 0 0 0 0 0 0 0 0 0 0 0 0 0 0 0 0 0 0 0
2 2 2 1 0 0 0 1 1 1 0 0 0 0 0 0 0 0 0 0 0 0 0 0 0 0 0 0 0 0 0 0 0 0 0 0 0 0
3 3 3 1 1 1 0 0 1 1 0 0 0 0 0 0 0 0 0 0 0 0 0 0 0 0 0 0 0 0 0 0 0 0 0 0 0 0
2 2 2 2 1 1 0 1 2 2 1 0 0 0 0 0 0 0 0 0 0 0 0 0 0 0 0 0 0 0 0 0 0 0 0 0 0 0
1 1 1 1 1 0 0 1 2 2 1 0 0 0 0 0 0 0 0 0 0 0 0 0 0 0 0 0 0 0 0 0 0 0 0 0 0 0
0 0 0 0 0 0 0 0 1 1 0 0 0 0 0 0 0 0 0 0 0 0 0 1 0 0 0 0 0 0 0 0 0 0 0 0 0 0
1 1 1 0 0 0 0 0 0 0 0 0 0 0 0 0 1 1 1 0 0 0 0 0 0 0 0 0 0 0 0 0 0 0 0 0 0 0
2 2 1 0 0 0 0 0 0 0 0 0 0 0 0 1 2 4 4 2 1 1 0 0 0 0 0 0 0 0 0 0 0 0 0 0 0 0
1 1 1 0 0 0 0 0 0 0 0 0 0 0 0 1 3 4 6 5 2 1 0 0 0 0 1 0 0 0 0 0 0 0 0 0 0 0
0 0 0 0 0 0 0 0 0 0 0 0 0 0 0 1 2 3 4 4 2 1 0 1 0 0 0 0 0 0 0 0 0 0 0 0 0 0
0 0 1 1 0 0 0 0 0 0 0 0 0 1 0 0 1 1 2 2 1 1 0 0 0 0 0 0 0 0 0 0 0 0 0 0 0 0
0 0 1 1 0 0 0 0 0 0 0 0 0 1 1 0 0 0 0 0 0 0 0 0 0 0 0 0 0 0 0 0 0 0 0 0 0 0
0 0 1 1 0 0 0 0 0 0 1 1 1 1 1 0 0 0 0 0 0 0 0 0 0 0 0 0 0 0 0 0 0 0 0 0 0 0
0 0 0 0 0 1 1 0 0 1 2 2 1 1 0 0 0 0 0 0 0 0 0 0 0 0 0 0 0 0 0 0 0 0 0 0 0 0
0 0 0 0 1 2 2 1 0 1 2 2 1 0 0 0 0 0 0 0 0 0 0 0 0 0 0 0 0 0 0 0 0 0 0 0 0 0
0 0 0 0 1 2 2 1 0 0 1 1 0 0 0 0 0 0 0 0 0 0 0 0 0 0 0 0 0 0 0 0 0 0 0 0 0 0
0 0 0 0 1 2 1 0 0 0 0 0 0 0 0 0 0 0 0 0 0 0 0 0 0 0 0 0 0 0 0 0 0 0 0 0 0 0
Wind_Speed
1 1 1 1 1 1 1 1 0 0 0 2 2 3 3 3 5 3 3 8 8 8 7 7 6 6 6 6 6 6 7 7 8 8 9 9 10 11
1 1 1 2 1 1 1 1 1 0 0 1 1 2 2 2 4 1 2 8 10 10 10 9 9 8 8 8 8 8 8 8 8 8 9 9 9 10
1 2 1 2 2 2 1 1 1 1 1 0 1 2 2 1 1 2 3 4 6 12 13 11 11 10 10 10 9 9 9 9 9 9 9 9 9 9
2 2 2 1 1 1 2 2 1 1 0 0 0 1 2 3 3 3 4 5 3 8 13 14 13 13 12 11 11 11 11 10 10 10 10 10 10 11
3 3 2 1 1 0 1 1 1 1 0 1 1 1 2 2 2 4 5 3 5 5 10 12 13 13 13 13 13 13 12 12 11 11 11 11 11 11
2 2 2 2 1 1 1 1 1 1 1 2 2 2 2 2 2 2 3 2 4 4 3 6 11 14 15 15 15 14 14 13 13 13 12 12 12 12
3 3 2 2 2 1 1 1 2 1 2 2 2 2 0 0 1 1 3 3 3 3 2 3 4 5 8 12 15 16 15 15 15 14 14 13 13 13
4 3 3 4 5 4 3 2 1 2 2 2 3 2 2 2 1 2 3 3 3 2 2 4 4 4 5 5 11 15 16 16 15 15 14 14 14 13
4 3 5 5 6 5 6 7 6 7 6 3 4 4 4 3 2 3 3 4 4 4 4 5 4 5 5 5 8 12 14 15 15 14 14 14 14 14
4 4 4 3 5 3 3 5 6 6 8 7 5 6 5 3 3 4 5 5 6 6 5 5 5 5 5 3 7 10 13 14 14 15 15 14 14 14
6 6 6 5 5 5 4 4 5 4 7 8 9 8 7 7 4 3 4 5 6 5 4 4 4 4 4 4 5 10 12 14 14 15 15 15 15 13
5 6 8 7 7 8 5 5 6 5 5 4 5 7 8 9 10 7 6 6 6 5 4 3 3 3 4 4 3 3 5 10 14 15 15 16 14 8
5 5 5 8 11 11 8 5 5 4 4 4 5 6 6 6 7 8 8 7 6 6 5 3 3 4 4 5 4 4 4 4 5 8 12 16 15 11
4 3 2 7 8 9 7 7 6 4 4 5 6 5 5 5 5 6 7 8 8 9 7 5 5 5 6 7 7 5 5 5 5 5 5 9 12 15
4 3 2 4 6 6 10 10 7 5 5 6 6 5 5 4 4 4 5 6 8 8 8 8 7 6 6 7 7 6 6 6 5 5 5 4 5 5
7 6 7 8 7 7 6 6 6 6 6 6 5 5 4 4 4 4 4 4 5 5 7 8 8 8 7 8 7 7 7 6 5 5 5 5 5 5
5 5 5 4 5 5 5 6 6 6 7 6 5 5 5 5 5 4 4 4 5 5 5 4 4 5 7 6 7 7 7 7 6 6 5 6 6 6
5 5 5 5 6 5 5 5 5 5 5 5 5 5 5 5 4 4 4 4 5 5 5 5 4 4 5 5 7 7 6 6 6 6 5 6 7 6
5 6 5 5 5 4 4 4 4 4 3 3 4 4 4 4 4 4 4 5 5 5 5 5 4 4 6 8 6 5 5 6 6 6 6 6 7 6
6 6 5 4 3 3 3 3 3 3 2 3 3 3 3 3 4 4 4 5 5 5 6 5 4 4 5 8 7 6 8 7 6 6 6 6 6 8
4 4 3 3 2 2 2 2 3 3 3 2 3 3 3 4 4 4 5 6 6 6 6 6 5 6 5 5 6 6 6 8 8 6 6 6 7 7
2 3 3 2 2 2 2 2 2 2 3 3 3 3 3 4 5 6 5 5 5 6 7 6 5 5 4 6 8 9 8 7 7 11 12 10 6 7
2 2 3 2 2 2 1 2 3 3 2 2 3 3 3 4 4 5 5 6 6 6 6 6 6 5 5 6 8 8 10 9 7 6 7 10 14 16
Wind_Direction
200 183 294 276 307 17 29 51 71 327 142 153 156 150 146 139 157 195 178 189 199 208 214 220 227 234 243 248 250 255 260 264 266 268 270 271 270 266
162 94 350 356 6 7 10 350 354 345 66 145 147 126 114 133 162 214 200 190 206 213 216 219 224 231 236 240 244 248 253 257 260 261 263 264 267 266
156 137 119 22 5 338 351 341 14 33 64 100 97 110 131 127 176 240 233 212 212 217 217 218 221 227 233 237 240 244 247 252 256 259 260 262 264 266
168 158 187 181 143 337 344 349 16 51 103 239 192 195 198 195 206 233 255 249 227 216 213 216 221 225 231 235 238 241 243 246 250 254 256 258 260 263
174 184 194 172 197 332 316 326 323 341 66 253 258 230 225 212 201 246 265 270 273 238 214 217 224 228 232 235 237 239 241 244 246 248 251 254 256 258
189 196 190 186 188 212 258 263 289 308 290 264 252 236 220 208 199 245 272 256 267 277 245 219 222 228 233 236 238 239 240 241 244 246 248 251 253 254
201 206 189 148 110 78 318 2 346 325 299 286 278 283 252 297 265 279 287 282 265 266 269 263 230 227 231 237 239 239 237 237 240 243 246 249 251 253
207 206 186 179 176 189 211 231 250 274 299 309 299 305 303 305 329 302 302 308 302 304 312 289 276 255 239 227 224 225 229 233 237 240 243 245 248 251
217 218 239 215 189 199 210 223 234 237 233 248 274 283 289 299 310 305 299 294 283 283 285 278 271 270 267 271 236 221 222 226 232 236 240 243 246 249
232 227 238 230 232 221 222 223 224 226 224 225 239 256 265 278 276 273 274 276 267 262 246 258 263 262 274 267 239 228 221 225 230 235 238 241 244 247
232 231 226 224 219 214 232 250 256 258 247 232 222 235 248 260 262 282 279 278 280 277 259 251 265 268 270 267 252 238 232 232 236 239 241 243 245 248
226 228 229 227 212 208 222 241 251 258 270 264 246 248 247 249 240 230 244 258 271 278 274 275 284 292 292 280 281 270 248 244 241 242 243 244 244 241
232 224 212 201 206 209 217 236 249 271 280 272 260 248 241 237 229 221 221 229 247 260 276 291 293 295 288 291 289 277 263 261 249 248 246 245 240 224
261 266 193 174 192 205 216 234 248 266 267 265 264 260 254 247 237 230 225 225 231 243 257 265 269 272 279 283 284 281 280 277 271 262 251 246 241 233
265 298 287 206 203 215 229 234 240 242 248 254 259 262 262 264 265 257 244 238 240 246 253 245 245 253 257 266 274 277 281 276 268 269 266 255 246 234
246 251 239 228 229 242 237 225 223 234 241 252 261 268 274 275 270 264 259 256 259 259 250 245 245 246 256 260 264 271 270 270 272 269 268 267 262 251
215 228 230 220 221 225 229 227 221 223 231 241 252 262 269 271 271 267 262 264 265 270 275 269 258 252 248 253 264 265 266 268 268 272 279 280 271 262
199 231 236 239 239 236 234 234 230 231 232 234 240 246 257 263 270 277 278 278 278 278 278 279 279 282 279 265 245 263 270 274 277 280 281 281 280 275
202 234 241 243 246 248 245 245 247 241 235 242 250 255 262 268 271 275 275 277 278 278 277 277 278 280 287 288 282 252 267 277 279 278 272 268 272 273
224 234 243 248 248 251 256 260 264 267 259 258 266 270 270 276 281 283 284 288 291 290 288 284 283 281 278 283 286 280 256 258 266 272 278 276 271 269
228 235 241 246 249 255 260 261 268 276 280 277 275 279 282 284 284 285 287 291 290 289 290 287 279 275 273 283 284 282 277 261 253 259 275 283 286 284
241 248 252 263 267 265 272 276 282 285 291 292 298 298 299 298 293 289 287 287 283 283 287 289 292 289 280 276 282 288 290 286 271 263 256 251 262 273
277 283 278 271 271 276 288 301 301 299 303 298 299 301 304 296 287 286 287 288 291 291 293 294 293 288 286 285 286 289 293 296 293 288 279 269 261 260